Location: Newark
(12.4436°N, 0.6167°W)
Time: 07:20:38
(UTC+00:00)

S-56A Canister/Altair - All Passes

Search period start: 14 December 2019 00:00
Search period end: 24 December 2019 00:00
Orbit: 632 x 2500 km, 38.9° (Epoch: 13 December)

Date Brightness Start Highest point End Pass type
(mag) Time Alt. Az. Time Alt. Az. Time Alt. Az.
14 Dec - 05:32:42 10° SSW 05:40:49 48° SE 05:52:37 10° ENE visible
14 Dec - 07:36:15 10° WSW 07:46:26 57° NNW 08:00:33 10° NE daylight
14 Dec - 09:44:50 10° WNW 09:55:28 27° NNW 10:07:27 10° NE daylight
14 Dec - 11:56:17 10° NW 12:06:52 22° N 12:16:56 10° NE daylight
14 Dec - 14:04:40 10° NW 14:17:26 35° NNE 14:27:27 10° E daylight
14 Dec - 16:11:35 10° NW 16:24:52 85° NE 16:33:40 10° SE daylight
14 Dec - 18:21:27 10° W 18:28:55 22° SW 18:34:38 10° S visible
15 Dec - 05:00:32 10° SSW 05:07:54 39° SE 05:18:28 10° ENE visible
15 Dec - 07:03:23 10° WSW 07:12:58 63° NW 07:26:48 10° NE daylight
15 Dec - 09:11:12 10° WNW 09:21:31 29° NNW 09:33:42 10° NE daylight
15 Dec - 11:22:21 10° NW 11:32:45 22° N 11:43:02 10° NE daylight
15 Dec - 13:30:55 10° NW 13:43:38 33° NNE 13:54:06 10° E daylight
15 Dec - 15:37:46 10° NW 15:51:36 76° NE 16:01:01 10° ESE daylight
15 Dec - 17:46:56 10° WNW 17:56:09 29° SW 18:02:53 10° S visible
16 Dec - 04:28:31 10° S 04:35:04 31° SE 04:44:13 10° ENE visible
16 Dec - 06:30:37 10° WSW 06:39:37 70° NW 06:53:00 10° NE daylight
16 Dec - 08:37:42 10° WNW 08:47:39 30° NNW 08:59:54 10° NE daylight
16 Dec - 10:48:28 10° NW 10:58:37 22° N 11:09:03 10° NE daylight
16 Dec - 12:57:12 10° NW 13:09:46 31° NNE 13:20:34 10° ENE daylight
16 Dec - 15:03:58 10° NW 15:18:14 68° NE 15:28:16 10° ESE daylight
16 Dec - 17:12:35 10° WNW 17:23:17 36° SW 17:30:54 10° SSE daylight
17 Dec - 03:56:42 10° S 04:02:20 24° SE 04:09:50 10° E visible
17 Dec - 05:57:58 10° SW 06:06:23 79° NW 06:19:12 10° NE daylight
17 Dec - 08:04:21 10° W 08:13:53 32° NNW 08:26:07 10° NE daylight
17 Dec - 10:14:41 10° NW 10:24:30 21° N 10:34:59 10° NE daylight
17 Dec - 12:23:32 10° NW 12:35:50 29° NNE 12:46:53 10° ENE daylight
17 Dec - 14:30:13 10° NW 14:44:44 62° NE 14:55:23 10° ESE daylight
17 Dec - 16:38:21 10° WNW 16:50:20 44° SW 16:58:44 10° SSE daylight
18 Dec - 03:25:12 10° SSE 03:29:39 18° SE 03:35:12 10° E visible
18 Dec - 05:25:26 10° SW 05:33:16 89° NW 05:45:24 10° NE visible
18 Dec - 07:31:09 10° W 07:40:13 34° NNW 07:52:19 10° NE daylight
18 Dec - 09:40:59 10° NW 09:50:26 21° N 10:00:52 10° NE daylight
18 Dec - 11:49:55 10° NW 12:01:50 27° NNE 12:13:02 10° ENE daylight
18 Dec - 13:56:32 10° NW 14:11:08 56° NNE 14:22:22 10° ESE daylight
18 Dec - 16:04:12 10° WNW 16:17:17 53° SW 16:26:27 10° SSE daylight
19 Dec - 02:54:24 10° SSE 02:57:00 12° SE 02:59:57 10° ESE visible
19 Dec - 04:53:00 10° SW 05:00:16 79° SE 05:11:35 10° NE visible
19 Dec - 06:58:04 10° W 07:06:40 36° NNW 07:18:31 10° NE daylight
19 Dec - 09:07:24 10° NW 09:16:24 21° N 09:26:43 10° NE daylight
19 Dec - 11:16:22 10° NW 11:27:47 26° NNE 11:39:01 10° ENE daylight
19 Dec - 13:22:53 10° NW 13:37:27 51° NNE 13:49:11 10° ESE daylight
19 Dec - 15:30:10 10° WNW 15:44:07 63° SW 15:54:01 10° SE daylight
19 Dec - 17:44:18 10° WSW 17:48:16 12° SW 17:51:47 10° SSW daylight
20 Dec - 04:20:40 10° SW 04:27:23 67° SE 04:37:47 10° ENE visible
20 Dec - 06:25:06 10° W 06:33:12 39° NNW 06:44:45 10° NE daylight
20 Dec - 08:33:54 10° NW 08:42:27 21° N 08:52:34 10° NE daylight
20 Dec - 10:42:53 10° NW 10:53:43 24° NNE 11:04:49 10° ENE daylight
20 Dec - 12:49:19 10° NW 13:03:40 47° NNE 13:15:52 10° E daylight
20 Dec - 14:56:13 10° NW 15:10:49 72° SW 15:21:28 10° SE daylight
20 Dec - 17:08:18 10° W 17:15:18 17° SW 17:21:08 10° SSW daylight
21 Dec - 03:48:25 10° SSW 03:54:36 54° SE 04:03:59 10° ENE visible
21 Dec - 05:52:15 10° W 05:59:52 42° NNW 06:11:01 10° NE visible
21 Dec - 08:00:31 10° NW 08:08:36 22° N 08:18:25 10° NE daylight
21 Dec - 10:09:28 10° NW 10:19:39 23° NNE 10:30:30 10° ENE daylight
21 Dec - 12:15:49 10° NW 12:29:51 43° NNE 12:42:23 10° E daylight
21 Dec - 14:22:22 10° NW 14:37:25 81° SW 14:48:46 10° SE daylight
21 Dec - 16:33:08 10° W 16:42:18 22° SW 16:49:38 10° S daylight
22 Dec - 03:16:17 10° SSW 03:21:56 42° SE 03:30:11 10° ENE visible
22 Dec - 05:19:29 10° WSW 05:26:38 46° NNW 05:37:20 10° NE visible
22 Dec - 07:27:14 10° WNW 07:34:50 22° N 07:44:20 10° NE daylight
22 Dec - 09:36:09 10° NW 09:45:37 21° N 09:56:02 10° NE daylight
22 Dec - 11:42:25 10° NW 11:55:58 39° NNE 12:08:43 10° E daylight
22 Dec - 13:48:37 10° NW 14:03:55 90° SSW 14:15:57 10° SE daylight
22 Dec - 15:58:21 10° WNW 16:09:13 28° SW 16:17:47 10° S daylight
23 Dec - 02:44:16 10° SSW 02:49:20 32° SE 02:56:22 10° ENE visible
23 Dec - 04:46:49 10° WSW 04:53:31 51° NNW 05:03:42 10° NE visible
23 Dec - 06:54:02 10° WNW 07:01:12 22° NNW 07:10:19 10° NNE daylight
23 Dec - 09:02:54 10° NW 09:11:37 20° N 09:21:28 10° NE daylight
23 Dec - 11:09:05 10° NW 11:22:03 36° NNE 11:34:52 10° E daylight
23 Dec - 13:14:57 10° NW 13:30:19 82° NE 13:42:59 10° SE daylight
23 Dec - 15:23:50 10° WNW 15:36:03 34° SW 15:45:40 10° SSE daylight
